Content
SEND FEEDBACK

Daily
Averages
Monthly
Summary
United States of America

SAHUARITA, ARIZONA


Home > North America > United States > Arizona
Elevation: 2700 feet     Latitude: 31 59N     Longitude: 110 59W

WEATHER
 
SELECT A DAY
Number of Records: 106,932;   Date Range: 1/1/02 - 9/16/14
 
SHARE

PRINT THIS DATA

[ ← Previous Day ]
WEATHER ALMANAC - JANUARY 4, 2013
[ Next Day → ]
[ °C ]   °F
Weather ElementAverageHighLow
Temperature47.2 °F57 °F (3:53 pm)39.9 °F (5:53 am)
Dewpoint26.9 °F28.9 °F (2:53 am)25 °F (4:53 pm)
Humidity46.6 %62 % (3:53 am)29 % (4:53 pm)
Barometer30.20 in30.26 in (9:53 am)30.14 in (2:53 pm)
Wind Speed9.8 mph20.7 mph (9:53 am)
Wind Gust29.9 mph (9:53 am)
Weather ElementAverage
Visibility10 mi
Wind DirectionENE (83.9 °)

Weather ElementTotal
Precipitation---
Heating Degree Days16.6 (Base 65)
Averaged from 23 records on January 4, 2013
WEATHER CONDITIONS BREAKOUT
WIND DIRECTION BREAKOUT
WEATHER BY HOUR - JANUARY 4, 2013
[ °C ]   °F
Local TimeTemperatureDewpointHumidityBarometerVisibilityWind DirectionWind SpeedGust SpeedPrecipitationEventsConditions
1:53 AM42.1 °F28.0 °F58 %30.15 in10.0 miEast (100°)11.5 mphClear
2:53 AM42.1 °F28.9 °F60 %30.17 in10.0 miESE (110°)13.8 mph20.7 mphScattered Clouds
3:53 AM41.0 °F28.9 °F62 %30.18 in10.0 miESE (120°)12.7 mphMostly Cloudy
4:53 AM41.0 °F28.0 °F60 %30.18 in10.0 miESE (110°)15.0 mphMostly Cloudy
5:53 AM39.9 °F27.0 °F60 %30.19 in10.0 miESE (120°)19.6 mph26.5 mphClear
6:53 AM39.9 °F27.0 °F60 %30.21 in10.0 miESE (110°)16.1 mph24.2 mphClear
7:53 AM41.0 °F27.0 °F57 %30.24 in10.0 miESE (110°)11.5 mphClear
8:53 AM43.0 °F27.0 °F53 %30.25 in10.0 miESE (110°)13.8 mph21.9 mphClear
9:53 AM46.0 °F26.1 °F46 %30.26 in10.0 miESE (110°)20.7 mph29.9 mphClear
10:53 AM48.9 °F27.0 °F43 %30.25 in10.0 miESE (110°)17.3 mph25.3 mphClear
11:53 AM51.1 °F27.0 °F39 %30.22 in10.0 miSE (130°)19.6 mph25.3 mphClear
12:53 PM54.0 °F27.0 °F35 %30.18 in10.0 miESE (110°)16.1 mph23.0 mphClear
1:53 PM55.9 °F28.0 °F34 %30.15 in10.0 miEast (100°)8.1 mphClear
2:53 PM55.9 °F27.0 °F33 %30.14 in10.0 miEast (80°)8.1 mphClear
3:53 PM57.0 °F26.1 °F30 %30.15 in10.0 miENE (70°)3.5 mphClear
4:53 PM57.0 °F25.0 °F29 %30.16 in10.0 miCalmClear
5:53 PM53.1 °F26.1 °F35 %30.17 in10.0 miNE (40°)3.5 mphClear
6:53 PM50.0 °F26.1 °F39 %30.20 in10.0 miESE (110°)4.6 mphClear
7:53 PM48.9 °F26.1 °F41 %30.21 in10.0 miCalmClear
8:53 PM46.9 °F26.1 °F44 %30.22 in10.0 miESE (110°)4.6 mphClear
9:53 PM44.1 °F26.1 °F49 %30.24 in10.0 miENE (70°)4.6 mphClear
10:53 PM44.1 °F27.0 °F51 %30.24 in10.0 miCalmClear
11:53 PM43.0 °F27.0 °F53 %30.24 in10.0 miCalmClear
Hourly data recorded from KTUS, located miles away from Sahuarita, Arizona







STORIES FROM OUR PARTNERS